DAL76 KRIC-KMCO

Flight info

Callsign DAL76
Flight time N/A
Altitude 38000
Route KALLI7 DRAIK GSO Q83 ROYCO Q85 LPERD GTOUT1
Aircraft A321/M-SDE3FGHIRWY/LB1

Departure

Time 2026-04-27 00:02
Airport Richmond International Airport (KRIC)

Arrival

Time N/A
Airport Orlando International Airport (KMCO)
Time Latitude Longitude Altitude Speed Heading
2026-04-26 23:33 37.50892 -77.32971 171 ft 0 kts 287°
2026-04-26 23:38 37.50891 -77.32971 171 ft 0 kts 287°
2026-04-26 23:42 37.50891 -77.32970 171 ft 0 kts 287°
2026-04-26 23:50 37.50887 -77.32950 172 ft 4 kts 281°
2026-04-26 23:51 37.50886 -77.32918 172 ft 4 kts 252°
2026-04-26 23:51 37.50899 -77.32893 171 ft 4 kts 203°
2026-04-26 23:52 37.50910 -77.32888 171 ft 5 kts 193°
2026-04-27 00:00 37.50911 -77.32888 171 ft 0 kts 193°
2026-04-27 00:00 37.50910 -77.32888 171 ft 3 kts 193°
2026-04-27 00:01 37.50777 -77.32927 173 ft 32 kts 193°
2026-04-27 00:01 37.50563 -77.32993 172 ft 24 kts 190°
2026-04-27 00:01 37.50461 -77.32883 171 ft 22 kts 104°
2026-04-27 00:01 37.50537 -77.32769 170 ft 20 kts 14°
2026-04-27 00:02 37.50782 -77.32698 169 ft 75 kts 14°
2026-04-27 00:02 37.51579 -77.32461 209 ft 153 kts 13°
2026-04-27 00:02 37.52702 -77.32319 892 ft 175 kts 351°
2026-04-27 00:02 37.53703 -77.33243 1799 ft 193 kts 303°
2026-04-27 00:03 37.53884 -77.34935 2659 ft 202 kts 263°
2026-04-27 00:03 37.53346 -77.36691 2784 ft 230 kts 248°
2026-04-27 00:03 37.52635 -77.38636 3072 ft 259 kts 248°
2026-04-27 00:03 37.51866 -77.40770 3682 ft 275 kts 249°
2026-04-27 00:04 37.51067 -77.42978 4611 ft 278 kts 249°
2026-04-27 00:04 37.50408 -77.45257 5625 ft 276 kts 258°
2026-04-27 00:04 37.49954 -77.47589 6677 ft 273 kts 261°
2026-04-27 00:04 37.49588 -77.49926 7533 ft 273 kts 263°
2026-04-27 00:05 37.49237 -77.52318 8216 ft 282 kts 263°
2026-04-27 00:05 37.48869 -77.54777 8907 ft 289 kts 262°
2026-04-27 00:05 37.48384 -77.57236 9590 ft 298 kts 256°
2026-04-27 00:05 37.47775 -77.59765 10255 ft 306 kts 255°
2026-04-27 00:06 37.47120 -77.62413 10573 ft 329 kts 255°
2026-04-27 00:06 37.46413 -77.65262 10756 ft 352 kts 255°
2026-04-27 00:06 37.45633 -77.68291 10952 ft 373 kts 254°
2026-04-27 00:06 37.44794 -77.71428 11465 ft 382 kts 253°
2026-04-27 00:07 37.43935 -77.74600 12153 ft 386 kts 253°
2026-04-27 00:07 37.43063 -77.77813 12868 ft 389 kts 253°
2026-04-27 00:07 37.42186 -77.81054 13575 ft 393 kts 253°
2026-04-27 00:07 37.41304 -77.84323 14231 ft 397 kts 253°
2026-04-27 00:08 37.40417 -77.87622 14863 ft 400 kts 253°
2026-04-27 00:08 37.39523 -77.90957 15504 ft 403 kts 253°
2026-04-27 00:08 37.38638 -77.94267 16132 ft 406 kts 253°
2026-04-27 00:08 37.37727 -77.97641 16745 ft 409 kts 251°
2026-04-27 00:09 37.36380 -78.00808 17335 ft 416 kts 234°
2026-04-27 00:09 37.34319 -78.03371 17917 ft 421 kts 216°
2026-04-27 00:09 37.31774 -78.05211 18508 ft 424 kts 207°
2026-04-27 00:09 37.29158 -78.06938 19074 ft 425 kts 208°
2026-04-27 00:10 37.26533 -78.08662 19629 ft 426 kts 208°
2026-04-27 00:10 37.23903 -78.10389 20182 ft 428 kts 208°
2026-04-27 00:10 37.21297 -78.12107 20701 ft 429 kts 208°
2026-04-27 00:10 37.18655 -78.13856 21272 ft 430 kts 209°
2026-04-27 00:11 37.16002 -78.15608 21826 ft 431 kts 209°
2026-04-27 00:11 37.13348 -78.17354 22441 ft 431 kts 210°
2026-04-27 00:11 37.10699 -78.19095 23041 ft 429 kts 209°
2026-04-27 00:11 37.08055 -78.20835 23676 ft 428 kts 210°
2026-04-27 00:12 37.05418 -78.22575 24157 ft 429 kts 210°
2026-04-27 00:12 37.02773 -78.24314 24578 ft 430 kts 210°
2026-04-27 00:12 37.00116 -78.26058 24975 ft 432 kts 209°
2026-04-27 00:12 36.97478 -78.27787 25356 ft 434 kts 210°
2026-04-27 00:13 36.94797 -78.29547 25748 ft 437 kts 210°
2026-04-27 00:13 36.92104 -78.31313 26158 ft 439 kts 209°
2026-04-27 00:13 36.89390 -78.33091 26518 ft 441 kts 209°
2026-04-27 00:13 36.86667 -78.34874 26889 ft 443 kts 209°
2026-04-27 00:14 36.83936 -78.36660 27243 ft 444 kts 209°
2026-04-27 00:14 36.81190 -78.38454 27585 ft 447 kts 209°
2026-04-27 00:14 36.78431 -78.40255 27948 ft 449 kts 209°
2026-04-27 00:14 36.75694 -78.42037 28291 ft 451 kts 209°
2026-04-27 00:15 36.72907 -78.43850 28644 ft 453 kts 209°
2026-04-27 00:15 36.70112 -78.45669 29020 ft 454 kts 209°
2026-04-27 00:15 36.67318 -78.47487 29485 ft 452 kts 209°
2026-04-27 00:15 36.64539 -78.49293 30033 ft 448 kts 209°
2026-04-27 00:16 36.61783 -78.51079 30519 ft 445 kts 209°
2026-04-27 00:16 36.59048 -78.52856 30957 ft 443 kts 209°
2026-04-27 00:16 36.56322 -78.54629 31371 ft 441 kts 209°
2026-04-27 00:16 36.53609 -78.56388 31786 ft 439 kts 209°
2026-04-27 00:17 36.50911 -78.58135 32252 ft 437 kts 209°
2026-04-27 00:17 36.48213 -78.59875 32685 ft 435 kts 209°
2026-04-27 00:17 36.45534 -78.61602 33120 ft 434 kts 209°
2026-04-27 00:17 36.42904 -78.63300 33551 ft 431 kts 209°
2026-04-27 00:18 36.40248 -78.65018 34031 ft 428 kts 209°
2026-04-27 00:18 36.37607 -78.66724 34419 ft 427 kts 209°
2026-04-27 00:18 36.34970 -78.68422 34751 ft 426 kts 209°
2026-04-27 00:18 36.32331 -78.70120 34939 ft 430 kts 210°
2026-04-27 00:19 36.29656 -78.71841 35117 ft 434 kts 210°
2026-04-27 00:19 36.26978 -78.73566 35362 ft 434 kts 210°
2026-04-27 00:19 36.24295 -78.75291 35642 ft 435 kts 210°
2026-04-27 00:19 36.21610 -78.77016 35906 ft 435 kts 210°
2026-04-27 00:20 36.18923 -78.78739 36191 ft 435 kts 210°
2026-04-27 00:20 36.16239 -78.80458 36478 ft 434 kts 211°
2026-04-27 00:20 36.13557 -78.82173 36720 ft 434 kts 211°
2026-04-27 00:20 36.10867 -78.83886 36968 ft 435 kts 210°
2026-04-27 00:21 36.08178 -78.85601 37195 ft 435 kts 211°
2026-04-27 00:21 36.05524 -78.87297 37435 ft 435 kts 211°
2026-04-27 00:21 36.02834 -78.89018 37673 ft 436 kts 211°
2026-04-27 00:21 36.00139 -78.90743 37891 ft 437 kts 211°
2026-04-27 00:22 35.97440 -78.92467 38042 ft 437 kts 211°
2026-04-27 00:22 35.94737 -78.94187 38081 ft 437 kts 211°
2026-04-27 00:22 35.89334 -78.97612 38079 ft 436 kts 211°
2026-04-27 00:23 35.83938 -79.01038 38071 ft 436 kts 211°
2026-04-27 00:23 35.78584 -79.04445 38075 ft 436 kts 212°
2026-04-27 00:24 35.73184 -79.07872 38052 ft 438 kts 212°
2026-04-27 00:24 35.67752 -79.11302 38065 ft 439 kts 212°
2026-04-27 00:25 35.62311 -79.14729 38082 ft 439 kts 212°
2026-04-27 00:25 35.56867 -79.18155 38086 ft 440 kts 212°
2026-04-27 00:26 35.51455 -79.21571 38087 ft 441 kts 212°
2026-04-27 00:26 35.45989 -79.25006 38086 ft 442 kts 212°
2026-04-27 00:27 35.40519 -79.28435 38060 ft 442 kts 212°
2026-04-27 00:27 35.35050 -79.31857 38058 ft 441 kts 212°
2026-04-27 00:28 35.29586 -79.35268 38049 ft 440 kts 212°
2026-04-27 00:28 35.24132 -79.38675 38024 ft 440 kts 212°
2026-04-27 00:29 35.18716 -79.42063 38022 ft 440 kts 212°